Find WHDW 19-09

NORAD ID: 67530 Int'l Des: 2026-013 Owner: ZXW Country: CN Constellation: xingwang operational
LEOCIRCULAR

Aktuelle Ansicht

3D-Globus wird geladen...

Über WHDW 19-09

Beschreibung wird geladen...

Nächste Überflüge

Passes for default location (London). Set your location on the main map for personalized predictions.

Höhenverlauf

Loading altitude history...

Zweizeiliger Elementsatz

1 67530U 26013J 26146.21495695 -.00000089 00000-0 75386-4 0 9994
2 67530 50.0069 74.0919 0000925 30.6578 329.4348 13.29328307 17120
Epoch: 26. Mai 2026 • Age: 18 hours

Aktueller Status

Höhe 1157.2 km
Geschwindigkeit 7.27 km/s
Subsatellitenpunkt -28.30°S, 175.02°E
Startdatum 19. Jan. 2026
Alter 0.3 years
Typ other

Technische Details

Klassifizierung Payload
Masse 800.00 kg
Trockenmasse 800.00 kg
Gesamtmasse 800.00 kg
Länge 3.00 m
Durchmesser 1.00 m
Spannweite 10.00 m
Form Box + 2 Pan
Hersteller YINNT
Bus-Typ Xingwang Y
Phasenstatus In Orbit
Besitzer/Staat ZXW/CN

Most Searched